Theta_e
316 316 319 318 319 307 318 315 309 312 318 314 310 310 311 310 307 305 312 309 315 320 323 325 327 327 328 330 331 335 336 337 338 338 340 341 342 340 341 343 344 344 344 344 343 342 340 341 341 340 343 343 345 348 348 352 353 353 352 359 354 356 359
317 320 321 322 322 320 316 309 313 318 320 316 310 302 305 304 302 303 310 307 310 309 308 321 322 326 327 329 330 335 337 336 335 338 339 340 342 342 342 343 343 344 345 342 341 341 341 341 341 340 343 343 346 347 350 351 351 353 353 356 354 353 354
317 319 317 315 320 323 315 313 321 311 307 306 312 307 299 299 300 302 306 308 310 313 314 316 318 322 325 329 332 333 334 336 335 337 339 344 346 343 340 341 343 346 345 345 344 340 341 341 342 341 342 343 345 347 349 351 352 352 352 353 354 353 352
314 316 314 305 311 318 320 320 315 319 313 308 305 307 307 306 300 301 302 306 306 312 313 318 319 323 325 329 331 331 334 335 336 337 339 342 344 343 339 341 344 345 345 344 345 341 341 341 341 341 342 343 344 347 353 352 352 355 359 355 356 354 351
313 307 312 308 310 309 311 310 309 312 312 315 312 310 307 304 302 302 302 301 306 315 319 319 324 324 327 329 330 332 334 336 336 337 338 340 342 342 339 341 343 343 343 344 344 343 341 342 342 342 343 343 343 346 349 351 350 349 357 355 357 358 357
306 308 314 313 312 313 312 311 309 310 308 306 303 302 311 309 305 303 302 301 309 315 321 323 323 324 326 330 331 331 333 335 335 336 338 339 340 342 341 343 342 340 341 343 343 343 341 341 341 341 342 343 343 346 347 349 352 354 355 355 358 362 365
308 311 313 316 315 315 315 314 311 312 311 309 305 297 304 308 309 310 309 304 308 322 321 325 325 327 328 329 333 332 331 334 334 335 337 340 340 341 344 343 345 345 346 346 344 344 341 340 341 341 342 342 343 346 347 352 357 356 358 358 363 364 365
312 314 316 317 316 315 312 313 314 312 309 310 308 307 309 306 307 306 306 303 308 317 323 324 324 326 328 330 330 333 332 334 336 338 343 345 342 342 344 340 343 345 346 346 346 346 340 341 344 343 344 347 343 343 346 349 358 359 360 364 363 363 362
306 308 311 312 315 314 311 310 313 313 313 312 312 310 311 304 306 307 304 300 307 316 322 323 323 325 326 328 329 331 330 333 335 338 339 341 344 342 344 344 343 345 344 343 345 344 343 344 344 345 350 349 346 349 346 351 361 360 361 365 365 364 363
296 296 298 301 304 308 311 312 312 313 312 310 309 305 309 301 310 308 305 306 313 317 322 320 323 326 328 329 329 331 333 335 338 338 341 343 343 344 347 343 346 345 346 347 347 347 345 344 344 350 356 352 350 350 351 356 360 364 365 364 369 368 366
303 306 308 311 312 310 306 309 310 310 312 312 311 309 306 305 309 308 313 310 311 313 316 318 321 324 324 326 330 332 333 336 339 342 343 337 338 342 340 345 348 347 346 346 345 349 346 341 342 347 348 350 350 359 359 356 362 368 370 371 373 372 368
309 309 310 312 312 308 309 309 309 310 310 311 309 306 305 316 306 303 313 317 310 312 314 317 321 324 325 326 329 332 335 337 337 339 340 339 337 337 340 340 343 342 343 346 344 347 348 345 346 347 344 352 363 368 359 359 362 366 368 373 375 374 372
310 310 310 311 311 310 309 310 310 310 310 310 308 308 309 310 307 305 314 316 312 315 315 318 323 325 325 325 327 333 336 335 337 337 337 338 335 336 336 336 339 346 345 344 345 347 349 349 353 350 352 356 364 368 368 366 365 368 370 375 374 375 372
310 310 309 311 310 310 310 310 311 311 310 310 310 310 311 311 310 312 313 316 313 315 317 318 324 326 327 327 328 333 333 332 332 332 334 335 338 337 335 336 339 344 351 351 358 348 355 353 357 359 359 353 361 365 367 369 371 372 373 374 375 374 371
308 310 311 310 310 309 308 310 311 311 311 311 311 311 311 312 311 312 312 313 314 318 321 319 322 329 328 330 327 327 329 330 331 331 331 334 337 338 337 337 339 343 348 355 361 352 352 354 360 360 358 358 364 365 367 371 373 375 375 375 376 374 370
305 309 309 309 310 310 309 308 310 310 309 308 309 309 311 310 310 311 312 312 312 318 322 322 325 327 328 329 329 328 326 327 329 331 331 332 334 337 338 339 339 341 344 350 359 359 355 354 359 358 360 360 361 364 369 372 375 377 376 375 375 374 372
304 308 309 308 309 308 305 305 308 310 312 312 312 313 314 313 314 309 310 311 318 320 322 320 322 324 328 328 329 331 333 331 330 330 331 333 335 335 338 339 340 341 343 348 356 360 358 356 358 358 364 361 360 363 367 374 376 375 375 375 375 373 372
305 308 308 309 305 299 301 311 314 313 310 311 310 310 312 319 320 313 317 318 322 321 321 321 321 327 328 328 330 333 337 336 333 333 334 335 338 339 338 339 342 344 346 350 355 359 360 359 362 362 366 365 365 368 370 376 374 374 374 375 374 372 370
305 308 308 302 298 299 311 314 315 315 315 314 314 314 315 318 320 320 319 322 322 322 323 323 325 328 329 333 330 334 337 339 337 335 336 342 341 342 342 341 341 345 346 349 352 355 358 356 357 362 364 367 369 370 372 374 374 373 373 373 372 371 370
308 305 304 296 298 309 312 314 315 317 316 315 314 312 315 319 317 319 319 321 322 323 324 324 328 330 329 330 333 335 338 339 339 338 338 340 343 344 347 345 344 344 345 347 349 350 355 357 355 356 361 365 370 370 374 375 374 371 371 371 370 371 370
303 305 303 302 309 308 309 311 313 315 314 314 312 307 313 318 318 320 320 322 324 324 325 327 327 329 329 331 331 332 336 339 335 335 337 339 346 349 351 351 349 348 347 347 349 353 353 354 356 355 358 363 369 371 373 372 371 370 369 369 370 370 370
309 305 303 303 302 300 306 312 316 319 319 319 319 315 313 320 322 323 321 321 322 323 324 328 330 330 328 323 330 332 333 335 335 335 335 338 343 346 349 356 356 354 352 350 350 350 351 353 355 359 362 367 370 370 368 368 369 368 367 368 370 370 371
308 308 302 302 301 304 311 312 316 318 319 318 320 313 307 320 323 323 322 322 325 325 327 329 331 327 320 323 326 335 333 336 335 333 336 336 340 346 350 351 352 353 356 354 350 353 351 348 354 362 366 367 367 366 365 367 369 367 366 368 369 369 373
307 306 304 301 307 307 313 314 317 318 319 319 315 302 305 317 323 323 323 324 326 330 333 333 331 329 322 324 329 333 335 337 336 338 342 347 339 343 348 351 351 353 357 360 354 354 353 354 356 360 363 362 364 366 365 368 367 366 367 369 371 374 377
307 306 304 307 308 316 321 319 319 320 320 316 306 302 314 322 323 324 324 327 329 332 336 336 333 335 336 335 339 340 335 336 345 347 349 354 355 348 348 350 360 354 353 352 350 350 351 356 355 357 357 357 364 367 367 368 366 367 369 372 373 378 377
305 307 304 305 311 319 322 321 326 326 314 305 307 318 324 323 323 325 325 326 334 334 335 338 336 337 338 337 339 345 348 345 351 347 347 351 353 354 357 357 354 355 352 354 355 352 355 360 359 360 359 362 368 368 368 366 366 369 372 373 378 378 374
309 308 305 303 298 322 324 322 324 326 316 315 324 325 326 328 326 324 326 328 333 334 335 336 338 337 336 336 339 350 349 349 348 346 344 347 348 357 361 363 365 352 351 352 351 352 351 356 358 359 361 370 370 368 366 367 365 368 371 375 377 375 372
306 308 305 303 314 321 324 322 316 322 325 327 328 326 325 327 328 326 327 332 332 336 336 334 334 337 339 342 346 347 350 346 345 344 344 345 347 354 360 364 364 363 364 364 366 370 362 363 367 363 365 368 368 366 366 368 364 369 373 376 375 370 368
312 314 314 319 325 322 323 324 325 325 328 330 329 327 327 324 326 328 327 329 335 340 338 336 335 335 341 340 346 346 349 348 346 343 343 346 348 356 356 359 363 364 363 362 362 362 364 372 371 370 370 367 367 364 368 371 371 373 374 373 371 367 364
319 320 320 326 323 324 324 325 326 325 328 329 330 328 327 330 329 328 327 330 334 338 341 337 335 331 330 331 337 346 353 352 353 354 354 356 357 356 358 358 359 362 363 363 361 360 361 362 367 376 372 370 366 368 373 377 378 376 372 369 365 364 362
312 304 318 319 324 325 325 325 326 328 328 329 329 330 330 330 330 328 328 335 337 340 343 340 337 333 333 332 336 349 352 353 355 355 354 355 357 356 355 358 360 358 358 357 357 357 357 361 363 367 372 372 373 375 377 376 375 372 368 365 361 360 358
313 313 319 322 324 326 326 326 325 324 326 329 332 331 331 331 332 330 331 337 338 339 338 339 336 335 336 336 335 342 345 352 354 354 354 355 355 356 358 358 359 357 356 354 355 355 355 359 362 361 360 361 364 367 369 370 370 368 363 361 358 357 357
316 318 322 321 324 324 323 323 324 325 327 328 329 333 332 332 331 332 333 335 334 333 339 339 337 336 338 341 339 347 351 355 353 354 354 355 355 356 356 356 357 356 355 354 353 352 353 357 360 362 360 359 360 363 364 364 366 363 360 358 358 356 354
311 312 316 319 315 316 322 322 322 324 328 328 331 330 330 332 333 337 334 333 339 338 338 336 338 343 338 337 342 346 351 352 352 352 353 354 354 354 356 356 355 354 354 354 353 352 354 356 357 359 360 362 361 358 359 360 361 359 358 356 354 351 350
310 317 320 322 322 322 324 323 322 324 327 327 329 330 329 330 334 335 335 337 339 339 340 337 336 337 340 341 346 351 352 353 355 356 352 352 353 352 355 354 352 351 351 351 350 352 353 355 354 355 357 359 360 358 358 359 358 358 357 353 351 348 345
316 320 320 321 321 318 321 323 323 324 326 326 326 331 332 331 333 335 335 338 340 341 340 340 339 341 343 346 348 350 351 352 355 355 355 353 353 354 355 353 352 351 349 349 349 349 351 352 352 353 352 355 358 356 357 357 358 357 356 352 349 346 345
317 320 321 321 320 320 321 322 323 324 325 325 324 325 328 328 335 335 336 338 342 342 338 341 342 346 348 349 351 350 351 354 354 353 354 354 353 352 351 351 350 351 350 350 349 349 350 350 351 351 351 353 354 354 357 356 357 356 355 351 349 346 344
Wind_Speed
10 11 9 12 9 7 3 6 7 6 3 9 8 8 10 12 6 4 4 3 5 6 5 8 7 7 8 11 14 14 16 16 15 14 13 10 10 13 14 13 13 15 15 15 16 16 16 15 13 14 11 15 15 16 16 15 14 13 14 11 13 12 10
8 2 4 8 10 9 9 7 5 6 6 9 7 8 7 6 6 5 7 8 6 8 5 4 5 8 6 9 12 15 15 18 15 11 12 11 10 12 14 16 16 13 12 15 14 15 16 16 15 16 14 14 13 16 15 17 16 14 13 12 13 13 12
7 11 9 11 12 13 12 7 5 11 3 5 1 6 7 7 6 2 3 4 4 5 4 1 4 7 7 9 13 14 16 16 15 15 13 10 9 11 13 14 14 13 13 12 12 17 17 16 15 16 15 15 14 15 16 15 16 15 14 12 11 11 12
7 9 9 8 9 11 13 11 11 9 8 6 6 1 8 6 7 6 1 5 4 4 4 4 7 8 9 12 13 14 17 17 17 16 15 13 9 11 15 15 12 10 10 13 13 17 18 18 16 15 16 14 16 13 13 13 15 12 10 11 9 9 12
9 10 6 7 7 9 11 10 9 8 8 5 8 7 9 6 8 7 7 5 4 7 8 7 9 3 5 13 13 13 15 16 17 18 16 15 14 13 14 13 11 10 12 13 13 15 16 16 14 14 14 15 15 14 14 14 16 14 12 12 9 7 7
5 6 7 8 11 9 7 7 9 8 7 7 7 7 8 7 6 5 5 4 3 4 5 8 8 5 4 11 15 14 16 18 16 15 18 16 14 13 12 14 14 14 13 14 13 13 13 14 15 15 14 14 16 13 14 13 11 11 10 11 8 6 5
8 8 5 13 10 11 9 6 8 6 8 9 10 4 3 5 4 8 6 6 2 2 7 7 8 7 8 7 13 12 12 17 16 15 14 14 13 12 8 4 9 13 12 11 12 12 13 16 15 15 13 13 13 14 14 10 9 11 10 9 7 6 5
9 14 13 11 3 10 10 9 9 11 9 7 8 7 5 5 5 6 4 4 1 5 8 7 9 9 9 5 9 12 10 12 13 11 8 8 10 10 10 11 10 11 11 10 9 11 14 11 10 11 10 9 10 14 12 11 9 12 10 8 8 6 5
6 9 8 8 3 6 7 6 6 9 9 8 8 8 6 6 5 8 5 6 3 4 8 8 7 8 8 7 5 9 11 12 14 12 11 8 10 9 9 10 9 10 13 14 12 11 9 9 10 10 7 9 8 9 13 11 8 11 9 8 7 7 6
7 6 7 7 7 8 6 8 12 13 13 16 13 9 3 4 3 5 8 4 3 5 9 9 9 10 8 6 8 7 11 12 12 11 10 5 6 4 3 10 8 11 12 12 10 9 7 8 7 6 6 9 8 10 12 12 9 9 9 9 8 8 7
9 7 8 10 12 8 10 10 13 15 18 9 7 8 8 5 4 4 6 4 7 9 8 7 11 9 5 8 11 11 11 12 11 11 10 10 6 3 2 4 3 7 8 11 11 8 7 11 9 9 10 7 7 7 11 13 10 8 9 8 8 8 8
12 13 12 8 8 11 7 9 13 12 6 9 14 9 5 6 5 5 3 7 6 6 7 4 11 10 6 9 10 11 11 11 11 11 7 5 8 3 4 6 8 12 10 10 11 9 9 9 10 6 9 8 5 7 12 12 12 9 9 9 9 8 7
14 14 12 11 9 8 12 14 9 7 6 5 6 8 11 8 5 3 3 6 7 2 8 12 10 7 4 8 12 12 13 13 11 10 10 8 9 10 7 12 11 8 9 10 11 12 10 11 9 13 9 7 5 8 7 10 12 11 10 9 9 8 7
12 13 12 12 12 9 7 10 9 8 6 10 8 7 6 7 7 8 1 8 6 5 7 7 12 6 4 10 13 13 13 14 12 11 10 12 9 13 17 17 13 11 7 6 7 10 6 9 8 7 7 9 7 9 9 8 8 9 9 9 9 8 8
10 14 11 14 14 11 13 10 10 12 13 11 8 7 9 5 6 8 8 3 3 10 9 9 6 6 9 8 13 17 16 13 14 13 13 12 14 14 15 13 13 11 8 6 6 9 10 8 7 7 8 9 9 10 9 9 9 8 9 9 8 9 8
8 9 11 9 10 12 12 12 11 11 15 13 3 7 3 6 4 5 6 8 7 9 8 6 5 7 10 8 5 11 13 16 14 14 13 13 13 13 14 15 13 11 8 7 4 6 8 9 9 8 8 8 9 9 9 9 8 8 8 9 8 8 8
7 9 9 11 13 13 12 11 12 15 13 7 7 5 3 6 7 7 3 1 2 7 7 8 7 6 9 7 6 6 10 14 17 15 15 13 14 14 13 14 15 16 13 9 6 5 6 8 9 9 9 8 8 7 8 8 8 8 8 8 8 8 8
6 10 13 9 8 10 8 2 6 2 4 2 8 6 6 11 14 6 5 1 7 6 7 8 7 13 6 2 4 6 9 9 11 14 14 15 14 13 16 16 14 13 9 7 8 7 7 6 7 8 9 9 8 7 8 8 9 9 9 8 9 9 8
7 8 7 8 10 6 6 1 5 6 5 7 6 6 9 6 13 13 1 10 11 8 8 10 11 11 6 14 3 8 9 9 10 11 12 10 11 13 14 16 18 15 16 14 11 10 10 11 8 8 8 9 8 8 9 10 10 10 9 9 8 8 9
6 7 5 8 4 7 6 3 5 6 7 6 6 9 3 11 16 13 5 7 7 6 9 7 8 6 7 6 4 6 5 10 11 12 12 14 12 12 12 15 16 16 16 16 16 14 11 11 11 10 10 10 10 10 10 11 10 10 10 9 9 9 9
8 5 5 10 3 9 8 7 4 3 4 5 7 8 4 4 3 5 7 5 9 10 10 11 7 6 3 2 1 8 6 9 8 8 11 12 12 11 11 13 15 16 17 17 17 13 12 13 12 12 10 11 10 10 10 10 11 10 10 9 9 10 10
6 6 7 6 8 7 3 7 6 5 4 3 4 3 4 5 9 4 8 6 7 8 8 8 9 6 3 4 3 1 4 8 10 11 9 12 11 12 11 9 10 11 13 15 15 15 16 15 15 12 12 11 11 11 11 10 10 10 10 10 10 10 11
6 6 7 6 7 4 3 7 8 11 10 2 3 2 2 8 8 8 5 7 9 7 8 7 4 3 1 3 5 5 6 5 8 5 3 0 8 8 9 10 10 10 10 13 16 16 16 18 15 12 13 13 12 11 10 10 10 10 10 10 10 11 11
8 9 6 7 2 5 6 7 5 5 8 1 3 8 2 5 3 3 6 7 6 7 6 5 6 5 2 4 3 1 4 5 4 8 8 9 7 6 4 8 10 10 9 9 13 15 15 14 14 13 13 12 12 12 11 11 11 11 11 11 11 10 10
8 10 8 4 4 3 13 14 6 2 5 5 5 5 4 4 5 6 6 6 6 7 7 6 3 2 2 5 15 14 6 3 6 9 11 10 12 8 5 5 1 6 9 11 13 15 13 11 13 15 13 12 13 12 12 12 12 11 10 10 11 10 10
10 8 10 8 2 4 10 12 16 12 7 2 6 2 8 7 9 6 7 11 13 8 4 5 4 2 1 2 4 9 4 5 6 8 9 13 10 4 4 3 2 1 4 6 5 6 8 12 13 12 11 10 11 12 12 12 12 11 11 11 11 10 10
8 7 9 9 5 6 12 14 10 17 11 1 4 7 10 16 14 10 6 8 7 4 3 3 5 7 2 3 7 1 3 6 7 7 9 8 8 7 5 6 7 3 4 3 2 6 7 7 7 7 10 8 9 10 11 12 12 12 11 11 11 11 10
3 5 5 1 1 6 9 9 5 6 6 3 5 7 7 8 10 8 9 6 4 5 5 3 3 2 5 4 3 5 1 6 5 6 5 6 5 5 4 6 10 11 9 9 8 9 3 5 5 8 8 8 8 8 9 10 10 11 12 12 13 14 11
6 2 2 4 4 4 5 6 6 4 3 5 7 7 5 6 3 8 5 6 11 10 12 14 14 10 5 5 6 8 8 7 5 5 5 5 7 2 2 5 8 9 9 10 9 11 11 6 3 5 7 11 10 11 9 8 9 12 12 13 12 11 12
9 11 7 10 7 5 1 1 6 6 6 5 7 7 6 7 5 7 8 6 6 8 10 9 6 7 11 16 17 13 6 8 8 7 7 7 5 2 2 5 8 8 8 9 9 10 10 10 8 4 7 9 9 7 6 5 10 12 12 12 12 12 12
7 5 1 6 6 7 6 4 5 4 5 6 5 6 6 5 6 7 9 7 5 7 6 7 7 6 6 6 14 11 2 4 5 6 6 4 4 4 4 4 6 8 8 9 9 9 8 9 9 8 8 6 5 6 7 9 9 11 12 13 12 13 13
6 6 3 1 5 4 3 2 3 5 6 6 6 3 5 4 5 4 6 7 8 5 5 4 5 3 3 4 10 10 5 2 6 5 5 5 6 5 5 6 7 7 9 9 8 8 7 7 7 8 9 8 6 7 7 7 8 10 11 12 12 13 14
6 9 10 14 3 4 5 9 6 5 6 6 4 4 4 5 4 4 3 7 5 4 5 6 4 1 6 9 13 9 8 3 5 2 5 5 5 6 6 6 7 7 7 8 9 8 5 5 5 5 7 6 6 7 7 7 5 7 9 11 11 12 12
6 3 6 7 4 3 3 9 7 8 8 6 4 2 5 7 6 9 9 4 4 6 7 6 4 5 2 12 7 7 2 6 8 6 2 5 7 6 6 7 9 8 8 7 8 7 5 3 3 4 4 4 4 6 7 8 5 7 8 8 9 10 8
3 4 3 4 3 3 7 4 8 8 8 7 6 1 4 2 4 5 6 7 8 5 4 4 5 3 3 9 6 1 3 4 4 6 6 5 6 7 8 9 8 8 8 7 5 6 5 3 4 3 2 3 4 5 9 7 7 7 7 8 8 8 8
6 3 6 6 6 6 8 8 7 9 6 6 9 6 8 3 9 6 7 7 6 6 4 1 3 6 4 6 3 0 2 3 4 5 5 5 4 5 9 11 8 7 8 6 5 5 5 4 3 2 3 2 3 6 8 7 6 7 7 8 8 7 7
5 8 7 7 8 9 9 10 8 7 8 5 4 6 6 7 5 6 6 3 6 6 4 4 4 4 7 5 4 3 2 4 4 4 4 3 4 4 5 9 9 5 6 6 5 4 4 3 4 3 1 3 4 4 7 8 6 5 6 8 8 9 9
Wind_Direction
247 211 210 208 233 263 311 268 251 278 309 262 291 283 269 281 279 323 115 13 68 118 23 81 76 117 98 104 133 151 158 155 160 165 154 156 165 176 181 187 190 196 197 201 207 204 199 196 185 193 172 178 167 155 167 170 171 184 178 182 181 185 189
246 359 248 260 196 234 257 250 318 320 253 290 282 292 314 296 312 358 329 46 348 332 87 116 177 124 122 125 146 146 151 156 154 160 156 160 177 176 186 185 192 199 200 192 194 213 197 194 186 192 176 181 166 163 168 172 172 187 174 187 184 186 189
217 178 235 238 252 214 230 252 249 275 320 267 9 317 292 313 305 309 40 9 59 51 152 148 57 108 128 129 137 148 157 160 159 169 166 171 174 165 189 193 190 200 206 205 197 201 199 196 191 192 178 179 175 169 170 171 176 184 177 184 189 186 187
221 206 176 242 208 217 252 280 276 271 260 274 273 152 285 284 292 282 145 340 7 350 43 136 111 116 163 144 153 164 164 169 167 169 171 172 182 186 190 191 182 187 209 207 220 200 194 185 193 191 180 180 178 172 159 167 176 181 171 179 196 189 187
242 204 176 240 240 226 201 213 250 252 254 288 294 257 249 282 307 349 353 7 7 332 5 45 130 126 122 147 162 163 163 168 172 171 169 171 182 190 191 187 172 184 203 213 225 218 190 185 189 193 179 186 178 175 170 168 178 178 173 177 191 204 177
225 309 166 224 231 246 252 237 227 240 286 260 257 302 341 328 312 330 308 307 101 261 40 30 38 73 138 149 151 168 168 170 175 173 175 173 176 190 194 183 174 187 201 212 219 229 192 187 182 198 182 194 182 173 169 174 176 166 174 173 188 200 193
269 238 245 204 228 216 246 235 241 225 236 244 214 219 254 288 326 313 309 295 20 359 56 65 67 95 71 99 153 157 170 168 174 172 164 166 169 169 164 241 161 175 194 210 215 233 202 191 182 198 188 195 185 161 166 172 169 161 173 167 180 196 205
279 289 298 326 295 256 204 220 263 292 265 275 311 306 291 291 309 281 328 301 65 343 79 57 51 57 99 90 140 154 161 171 168 159 128 162 153 153 164 204 201 177 197 211 219 237 209 195 179 197 185 199 185 170 168 173 163 159 163 162 169 187 206
263 279 292 275 270 304 291 282 212 227 261 266 247 258 276 293 299 309 321 316 49 315 70 98 73 54 78 99 120 162 157 167 164 148 141 188 151 172 178 191 193 179 194 210 219 234 205 191 179 203 182 180 198 161 171 163 156 157 162 159 163 170 190
242 239 225 221 216 219 227 239 271 243 233 236 237 251 291 278 39 344 288 300 30 348 97 91 76 93 94 87 115 101 144 142 120 115 112 78 89 76 183 195 195 181 193 207 217 233 198 173 187 211 184 176 195 162 163 150 156 151 159 156 155 166 183
283 314 337 309 298 196 226 202 227 241 230 254 296 300 301 281 8 305 49 337 330 317 338 87 71 81 88 126 122 120 134 135 131 130 135 148 129 115 210 273 225 206 199 218 226 244 197 176 196 201 187 172 210 162 151 150 153 149 151 151 157 170 182
260 274 266 260 283 286 215 227 218 248 280 202 204 206 233 68 327 277 344 1 331 332 313 59 89 92 119 122 124 131 133 138 143 142 137 136 122 102 301 278 228 209 211 220 225 224 195 193 170 193 217 170 172 145 149 152 153 152 157 155 163 171 176
234 236 256 274 269 250 284 291 275 267 212 230 310 290 249 221 255 304 139 331 285 297 15 40 95 95 84 136 136 142 144 144 144 143 145 160 168 154 230 260 265 239 218 227 226 204 193 193 176 185 185 161 145 133 140 153 153 156 158 158 164 169 172
273 233 221 241 261 279 232 264 270 227 266 271 251 230 302 298 262 284 252 218 271 5 49 36 82 96 90 120 140 135 148 152 147 157 166 172 180 171 194 226 235 235 225 217 230 170 193 188 180 166 154 161 143 134 139 147 149 153 156 161 164 167 170
279 293 245 210 209 222 280 250 236 282 278 253 238 302 288 276 270 262 281 356 312 47 12 34 17 117 102 123 140 150 151 158 157 167 190 193 186 194 199 210 219 224 224 223 192 178 182 184 164 149 146 152 137 142 147 153 157 156 159 160 166 168 166
267 240 263 253 254 248 229 255 254 229 251 260 221 244 239 324 338 332 300 18 3 35 23 349 50 74 83 114 116 143 159 161 176 179 189 199 210 201 204 210 215 219 217 223 193 178 175 167 152 152 154 157 152 155 153 157 157 157 160 163 166 167 162
277 285 262 253 238 227 231 234 253 245 239 251 270 274 34 249 299 312 323 120 353 43 23 12 10 36 129 129 149 170 178 172 172 189 195 200 206 208 209 210 210 211 208 204 186 168 176 170 158 159 152 159 168 164 162 157 156 161 162 165 164 162 163
288 282 296 271 243 240 244 270 252 312 273 334 284 281 266 25 341 319 22 308 70 43 32 14 15 82 288 143 141 158 160 176 179 190 199 201 200 198 199 208 214 213 207 196 190 182 176 179 160 165 159 164 171 170 166 161 163 164 163 166 164 162 161
279 304 283 278 250 252 336 48 341 331 288 232 234 285 299 168 204 254 121 36 51 35 18 24 16 51 18 337 124 134 155 165 183 198 202 206 204 197 191 198 205 201 199 196 192 185 184 186 180 166 171 166 168 170 170 166 165 165 166 163 164 162 161
284 264 256 261 255 14 343 334 266 223 278 312 309 292 267 51 38 354 90 75 59 45 11 15 44 16 104 330 339 112 145 183 187 197 199 198 206 203 191 190 198 201 198 195 193 195 184 182 188 187 179 174 171 175 168 163 164 166 165 164 165 161 162
271 272 264 261 340 296 272 271 294 348 261 248 253 268 93 305 149 68 37 55 54 36 30 13 25 34 29 186 334 111 168 206 216 204 198 196 196 193 187 188 194 200 198 194 196 187 187 190 190 192 188 184 180 170 167 164 164 164 163 166 166 164 166
248 266 265 259 250 264 202 206 292 304 288 284 322 5 254 38 59 32 57 45 44 35 28 26 354 0 0 198 65 49 224 243 262 218 236 194 193 195 188 186 194 194 201 201 191 190 191 196 194 187 187 182 176 174 171 167 164 164 167 168 165 165 170
287 284 276 284 288 250 340 292 232 220 234 255 312 324 281 16 24 37 16 29 52 26 14 14 13 317 262 156 195 183 237 193 283 297 343 306 156 181 178 191 197 197 200 200 197 192 193 196 195 190 182 174 174 174 169 167 165 165 170 166 167 170 171
250 258 264 268 304 338 327 299 350 356 82 115 295 269 56 329 36 19 39 36 39 31 36 23 37 13 8 326 313 243 216 237 238 337 10 357 138 132 150 191 194 196 191 193 204 204 202 198 189 189 183 177 175 167 170 163 169 171 169 169 166 170 162
238 247 256 227 238 279 356 317 322 75 19 333 252 316 34 27 69 35 14 68 49 52 47 47 58 52 155 285 326 321 301 278 33 16 9 18 26 48 28 51 150 186 186 197 206 207 208 202 193 191 187 185 173 167 164 166 172 169 166 163 165 164 158
251 252 251 245 149 42 334 354 9 350 227 179 19 257 274 345 30 20 16 38 52 49 58 109 105 138 121 15 285 284 356 40 32 37 29 21 6 31 71 83 97 95 190 196 220 206 213 188 192 180 181 175 167 162 164 171 169 164 162 161 159 152 152
245 251 254 250 247 354 350 356 35 40 61 331 276 320 3 0 354 360 45 50 57 20 27 65 131 145 184 249 251 244 70 69 77 59 36 35 344 341 30 36 24 134 130 144 173 222 209 201 178 178 167 151 156 161 167 167 167 165 157 155 147 145 146
277 263 271 315 33 288 352 356 20 49 72 53 346 339 18 29 2 297 47 52 20 27 18 9 355 96 158 202 223 346 55 103 92 82 88 50 331 285 41 35 48 59 72 57 35 3 150 156 152 168 161 144 153 168 178 169 169 153 151 146 148 150 143
317 97 237 232 203 312 337 355 42 4 16 6 6 341 356 64 31 319 32 15 49 32 33 31 17 10 333 260 218 188 191 154 134 111 97 122 234 247 80 70 71 71 67 59 45 42 25 18 103 124 140 150 156 176 180 176 157 149 147 147 145 139 140
302 293 283 177 220 101 41 353 351 335 5 360 355 7 14 15 17 359 46 37 47 48 59 43 36 45 26 350 320 270 200 139 138 146 140 154 172 133 102 95 88 86 84 73 63 45 38 18 2 80 121 133 149 183 169 163 144 142 138 138 138 140 140
273 262 333 325 54 69 31 21 343 344 356 356 2 19 13 5 8 20 5 70 63 56 59 95 104 66 30 353 297 296 331 92 109 129 135 138 116 90 72 66 92 98 90 90 75 61 55 33 18 25 62 69 82 80 105 129 135 132 134 139 142 143 145
273 299 320 358 354 21 310 23 16 25 14 13 24 349 330 355 345 340 56 109 104 103 69 64 81 96 160 219 285 291 330 155 135 135 132 126 107 93 93 73 67 84 98 92 89 87 66 48 50 64 74 73 70 76 88 113 122 129 135 142 144 147 144
316 298 14 10 38 59 81 71 40 358 359 8 319 51 3 3 3 348 16 44 48 86 117 158 141 140 254 181 227 227 159 123 82 107 128 112 102 100 88 87 81 77 79 91 97 91 81 63 73 84 86 86 96 109 120 116 112 126 135 145 147 141 141
262 314 1 341 336 312 17 1 7 349 7 348 12 28 11 0 9 26 29 12 28 36 29 17 40 128 102 313 252 240 103 119 143 152 163 122 113 106 107 100 90 78 75 89 101 103 105 105 102 119 113 137 129 143 131 127 137 136 146 138 133 135 130
323 1 347 36 320 272 111 302 0 338 27 351 17 143 189 255 339 357 18 9 12 25 34 1 5 354 210 196 251 280 135 137 136 143 153 138 126 125 113 103 97 98 94 84 91 99 106 107 99 115 166 157 189 170 118 139 150 158 150 137 138 130 131
278 17 32 13 6 334 341 331 336 315 37 337 4 36 100 41 299 343 351 7 358 352 341 12 355 329 350 326 341 179 105 132 119 119 125 124 130 129 125 122 111 110 112 110 116 114 114 117 111 102 152 151 193 150 133 144 153 159 151 143 145 139 132
2 24 28 7 331 322 315 311 315 318 337 6 336 8 6 27 66 328 297 341 328 322 336 353 360 337 333 330 348 21 41 80 91 86 80 98 132 131 111 104 115 133 126 126 135 131 110 116 127 141 191 99 22 94 121 137 161 158 140 151 142 149 138